SCP
0 0 0 0 0 0 0 0 0 0 0 0 0 0 0 0 0 0 1 1 1 1 1 0 0 0 1 1 1 1 1 1 2 2 2 2 2 2 2 3 4 4 3
0 0 0 0 0 0 0 0 0 0 0 0 0 0 0 0 0 0 0 0 1 1 1 1 0 0 1 1 1 1 1 1 2 2 2 2 2 2 2 3 3 3 3
0 0 0 0 0 0 0 0 0 0 0 0 0 0 0 0 0 0 0 0 0 1 1 1 1 1 1 1 1 1 1 2 2 3 3 3 2 2 2 2 2 3 3
0 0 0 0 0 0 0 0 0 0 0 0 0 0 0 0 1 1 0 0 0 0 1 1 1 1 1 1 1 1 2 3 3 3 3 3 3 2 2 2 2 2 2
0 0 0 0 0 0 0 0 0 0 0 0 0 0 0 1 1 1 1 1 1 1 0 1 1 1 1 1 1 1 2 4 4 4 3 3 3 3 2 2 2 2 1
0 0 0 0 0 0 0 0 0 0 0 0 0 0 0 1 1 1 1 1 1 1 0 0 0 1 1 1 1 1 2 4 4 4 3 3 3 3 2 2 2 1 1
0 0 0 0 0 0 0 0 0 0 0 0 0 0 0 1 1 1 1 1 1 1 1 0 0 0 1 1 1 1 2 3 3 3 3 3 3 2 2 2 2 2 1
0 0 0 0 0 0 0 0 0 0 0 0 0 0 0 1 1 1 1 1 1 1 1 0 0 0 0 0 1 1 1 2 2 2 3 3 2 2 2 2 2 2 2
0 0 0 0 0 0 0 0 0 0 0 0 0 0 0 0 1 1 1 1 0 0 1 0 0 0 0 0 1 1 1 1 1 1 1 2 2 1 1 1 1 1 1
0 0 0 0 0 0 0 0 0 0 0 0 0 0 0 0 0 0 0 0 0 0 0 0 1 0 0 0 0 0 0 1 1 1 1 1 1 1 1 1 1 1 1
0 0 0 0 0 0 0 0 0 0 0 0 0 0 0 0 0 0 0 0 0 0 0 0 1 1 1 0 0 0 0 0 0 1 1 1 1 1 1 1 1 1 1
0 0 0 0 0 0 0 0 0 0 0 0 0 0 0 0 0 0 0 0 0 0 0 0 0 1 1 1 0 0 0 0 0 0 1 1 1 1 1 1 1 1 1
0 0 0 0 0 0 0 0 0 0 0 0 0 0 0 0 0 0 0 0 0 0 0 0 0 0 1 1 1 0 0 0 0 0 0 0 0 0 1 1 1 1 1
0 0 0 0 0 0 0 0 0 0 0 0 0 0 0 0 0 0 0 0 0 0 0 0 0 0 0 1 1 1 0 0 0 0 0 0 0 0 0 1 1 1 1
0 0 0 0 0 0 0 0 0 0 0 0 0 0 0 0 0 0 0 0 0 0 0 0 0 0 0 0 0 0 0 0 0 0 0 0 0 0 0 0 1 1 1
0 0 0 0 0 0 0 0 0 0 0 0 0 0 0 0 0 0 0 0 0 0 0 0 0 0 0 0 0 0 0 0 0 0 0 0 0 0 0 0 1 1 1
0 0 0 0 0 0 0 0 0 0 0 0 0 0 0 0 0 0 0 0 0 0 0 0 0 0 0 0 0 0 0 0 0 0 0 0 0 0 0 0 0 0 0
0 0 0 0 0 0 0 0 0 0 0 0 0 0 0 0 0 0 0 0 0 0 0 0 0 0 0 0 0 0 0 0 0 0 0 0 0 0 0 0 0 0 0
0 0 0 0 0 0 0 0 0 0 0 0 0 0 0 0 0 0 0 0 0 0 0 0 0 0 0 0 0 0 0 0 0 0 0 0 0 0 0 0 0 0 0
0 0 0 0 0 0 0 0 0 0 0 0 0 0 0 0 0 0 0 0 0 0 0 0 0 0 0 0 0 0 0 0 0 0 0 0 0 0 0 0 0 0 0
0 0 0 0 0 0 0 0 0 0 0 0 0 0 0 0 0 0 0 0 0 0 0 0 0 0 0 0 0 0 0 0 0 0 0 0 1 1 1 0 0 0 0
0 0 0 0 0 0 0 0 0 0 0 0 0 0 0 0 0 0 0 0 0 0 0 0 0 0 0 0 0 0 0 0 0 0 0 1 1 1 1 1 0 0 0
0 0 0 0 0 0 0 0 0 0 0 0 0 0 0 0 0 0 0 0 0 0 0 0 0 0 0 0 0 0 0 0 0 0 0 0 1 1 1 1 0 0 0
0 0 0 0 0 0 0 0 0 0 0 0 0 0 0 0 0 0 0 0 0 0 0 0 0 0 0 0 0 0 0 0 0 0 0 0 1 0 0 0 0 0 0
0 0 0 0 0 0 0 0 0 0 0 0 0 0 0 0 0 0 0 0 0 0 0 0 0 0 0 0 0 0 0 0 0 0 0 0 0 0 0 0 0 0 0
0 0 0 0 0 0 0 0 0 0 0 0 0 0 0 0 0 0 0 0 0 0 0 0 0 0 0 0 0 0 0 0 0 0 0 0 0 0 0 0 0 0 0
Wind_Speed
5 4 4 4 5 4 4 4 4 5 4 4 4 4 3 3 2 2 3 6 5 6 6 6 5 5 5 5 5 5 5 5 5 4 4 4 4 5 7 10 11 10 10
5 4 4 4 5 5 5 4 5 4 3 3 4 5 4 4 3 3 3 4 5 5 5 5 6 5 5 5 5 5 5 5 4 5 5 5 5 7 9 10 10 9 10
5 5 5 5 5 5 5 4 5 4 3 3 4 4 4 4 4 4 3 2 3 5 5 6 6 6 5 5 5 5 5 5 5 5 6 6 7 8 9 9 9 8 9
6 5 5 5 5 5 5 4 4 4 4 4 4 4 4 4 5 4 3 3 3 3 6 7 7 7 7 5 5 4 5 6 6 5 5 6 6 7 8 9 8 8 8
7 6 5 5 6 5 5 5 5 4 4 4 4 4 5 5 4 4 5 5 5 3 4 5 5 7 8 8 7 5 6 7 6 5 5 5 6 6 7 7 7 8 8
7 6 4 6 6 5 5 5 5 4 4 3 3 4 4 4 4 5 5 5 5 5 5 5 3 5 7 9 9 8 7 6 6 6 5 5 5 6 6 7 6 6 8
6 6 5 6 6 6 6 7 5 5 5 3 1 2 4 6 6 5 5 5 6 6 5 5 4 4 3 6 8 8 7 7 7 6 5 4 4 5 6 6 5 6 7
6 5 6 5 5 5 6 7 6 5 5 4 3 1 2 3 4 5 5 5 6 5 5 6 6 5 4 3 6 8 8 6 6 5 4 4 4 4 5 5 5 6 7
6 6 7 6 6 6 6 7 7 7 5 5 6 5 3 3 2 4 6 5 6 5 5 5 6 6 5 4 4 6 7 6 5 5 4 3 2 3 4 4 4 6 7
5 6 6 6 6 6 6 6 7 5 5 5 4 5 5 4 2 2 3 5 6 6 6 6 6 6 6 5 5 8 7 6 5 4 3 2 1 2 3 4 5 6 7
5 5 5 5 6 6 7 7 7 7 5 6 5 4 4 3 4 3 3 4 4 5 5 6 5 5 6 5 5 8 7 6 5 4 3 2 1 0 1 3 5 6 8
3 5 4 5 5 6 6 6 6 7 6 6 5 5 5 4 5 4 3 3 4 4 5 4 4 5 5 5 6 8 6 5 5 5 4 3 2 1 1 2 4 6 7
3 4 4 4 5 5 6 5 5 6 6 6 6 5 5 5 4 4 4 4 3 3 3 3 4 4 4 4 4 7 3 4 4 4 4 3 3 2 1 2 3 4 6
3 4 3 4 4 5 4 5 5 5 6 6 6 5 4 5 4 4 4 4 3 2 3 5 4 5 5 4 6 6 3 3 3 4 3 3 3 2 2 2 3 4 5
3 3 3 3 4 4 4 4 4 5 5 6 6 6 4 4 4 4 4 4 5 4 3 4 4 6 6 5 6 6 5 6 4 4 3 3 3 3 3 3 3 4 4
3 2 2 3 4 4 4 4 4 5 5 5 4 5 5 4 4 3 4 4 4 4 4 4 4 5 6 6 6 7 6 4 3 3 4 4 4 4 4 4 4 4 5
2 3 3 3 4 4 4 4 4 5 5 5 5 6 6 6 4 4 4 3 3 4 4 4 4 5 7 7 6 6 6 5 3 2 4 5 5 5 5 5 5 5 5
3 3 3 3 4 4 4 4 4 4 5 5 6 6 6 4 5 5 4 4 4 4 5 6 5 5 7 7 7 7 6 5 5 3 3 5 6 6 6 7 7 7 7
3 3 3 4 4 3 3 3 3 3 4 4 5 5 6 6 5 5 5 5 4 4 4 5 5 5 5 6 7 6 6 5 6 4 4 5 6 7 8 8 8 8 8
2 3 3 3 3 3 3 3 3 3 3 4 4 5 5 6 6 6 5 5 5 5 5 5 5 5 5 6 6 6 6 6 6 7 5 5 5 7 8 9 9 9 9
2 2 3 3 3 3 4 4 3 3 3 3 4 4 5 5 7 7 6 6 6 5 5 5 5 6 5 6 6 6 7 7 7 5 6 6 6 6 5 7 10 10 9
2 2 2 2 3 3 6 5 5 3 3 3 4 4 3 3 4 3 4 6 7 7 7 6 6 7 8 8 7 7 8 8 7 5 7 7 6 7 6 6 5 6 9
3 2 2 2 2 4 4 4 5 4 3 4 4 4 4 4 5 6 4 5 5 5 7 8 9 9 9 9 9 10 9 9 9 8 8 9 8 8 7 6 6 8 10
3 2 1 1 1 3 4 3 5 4 3 3 4 5 5 5 6 8 8 8 7 6 6 7 8 9 10 10 10 10 11 11 11 8 8 9 9 8 7 7 7 9 10
3 2 1 1 1 1 2 3 5 3 3 3 3 4 5 6 7 9 9 8 8 7 5 7 10 11 12 12 10 8 9 9 9 8 7 8 9 9 9 8 7 9 10
3 2 2 1 1 1 2 3 6 3 4 4 3 3 2 5 8 9 9 9 9 9 10 9 9 9 10 8 8 9 8 9 10 9 7 7 9 9 9 7 6 6 7
Wind_Direction
21 23 28 16 13 12 11 0 3 17 11 20 19 22 20 26 23 36 80 72 39 29 28 29 28 27 33 37 29 22 23 18 20 39 59 75 82 91 110 117 122 128 133
24 13 27 25 18 9 6 359 20 10 20 28 30 36 21 26 38 51 55 97 89 54 35 33 28 27 33 36 35 27 33 30 56 67 74 80 86 100 111 113 117 122 130
24 22 21 27 18 11 10 8 21 14 31 40 48 44 46 31 34 48 53 43 88 96 65 44 35 32 36 38 37 36 49 51 71 81 86 85 85 98 111 115 119 123 127
33 29 24 27 21 16 16 17 12 21 36 37 44 42 56 53 43 44 56 62 52 61 88 62 42 36 36 35 33 49 66 61 65 79 91 94 99 102 108 114 118 124 130
32 39 28 20 24 24 22 19 23 13 33 33 51 53 47 48 43 40 48 49 54 51 64 88 76 54 42 36 44 62 76 68 67 70 83 96 104 111 112 116 120 122 131
30 32 34 28 23 29 26 28 32 30 22 18 44 62 57 57 55 42 37 47 46 47 47 48 67 80 61 45 46 63 69 67 68 71 76 86 103 122 125 126 126 132 139
29 31 23 29 21 29 25 26 22 38 34 11 30 85 83 59 50 50 37 35 49 44 43 48 40 40 70 72 51 48 57 62 67 67 73 91 100 117 130 133 139 149 151
30 27 29 31 34 32 32 29 26 20 35 22 1 9 83 88 51 45 42 39 39 41 38 42 43 43 36 41 63 48 43 51 58 62 66 92 120 128 138 145 154 162 161
37 31 32 31 30 33 35 27 26 26 26 34 25 7 16 37 31 51 40 42 40 33 35 34 39 39 40 39 45 59 41 40 45 51 61 77 117 141 148 157 165 166 165
45 37 37 35 37 37 36 32 35 28 23 31 43 31 31 27 354 49 57 43 38 35 32 30 32 38 35 40 47 46 36 34 39 37 39 59 85 155 171 179 178 175 172
50 46 40 40 39 39 38 37 33 28 32 30 30 31 34 28 11 23 39 30 43 40 34 30 31 35 32 32 30 38 28 25 28 28 20 18 22 119 189 195 193 190 187
60 55 45 44 42 39 38 35 36 41 32 32 27 31 25 25 16 16 18 25 33 34 32 36 30 30 26 24 34 26 18 15 15 16 14 8 355 333 283 212 209 209 204
63 54 47 44 43 41 37 31 37 36 40 36 31 26 26 28 18 5 2 12 14 30 32 40 35 27 19 16 27 1 27 19 8 2 359 357 351 332 312 271 241 231 223
57 58 53 51 49 41 42 40 33 36 32 39 40 33 24 24 17 13 3 351 351 19 36 32 25 26 12 7 17 323 13 39 357 340 334 329 317 301 287 283 280 260 248
64 60 68 66 61 50 38 37 36 39 34 32 32 33 25 26 14 11 5 357 346 345 8 21 7 11 359 3 356 342 349 25 348 327 316 304 286 276 268 262 263 264 259
65 63 64 73 70 62 53 40 37 32 39 47 32 30 22 19 17 14 3 1 355 342 343 358 354 354 355 345 1 344 345 330 293 306 307 296 277 269 261 253 248 247 247
76 67 61 57 57 57 61 60 41 38 34 40 38 37 31 17 13 14 7 2 359 345 331 338 347 349 348 345 347 341 334 323 331 336 304 292 278 269 261 255 247 243 243
76 68 71 68 64 55 50 52 46 40 37 34 32 29 27 27 19 11 1 1 1 347 333 332 334 347 345 344 342 334 332 332 324 340 302 285 275 266 260 254 247 242 240
92 81 73 66 61 53 49 40 37 34 38 35 26 19 16 17 12 14 2 359 352 347 335 322 333 340 330 340 334 330 330 329 319 316 287 265 264 264 261 254 245 239 237
99 86 75 68 61 52 38 33 29 28 32 30 23 17 11 9 4 359 355 353 346 339 335 326 326 330 328 336 327 329 326 327 319 316 313 303 281 260 253 249 245 242 237
101 90 82 74 68 52 35 18 23 19 17 19 16 16 24 19 11 358 349 344 340 331 328 325 323 323 326 328 330 326 318 315 311 308 313 306 301 290 270 245 237 237 236
109 98 91 82 72 58 49 19 340 352 353 357 360 357 7 4 359 326 328 325 323 323 326 319 315 316 321 325 325 313 312 310 307 310 304 299 294 288 283 275 264 240 237
128 119 105 91 77 70 55 22 340 322 338 347 345 347 347 355 334 335 320 284 282 277 290 303 306 312 316 321 317 310 306 302 298 302 300 291 287 281 280 276 257 249 243
144 154 144 117 74 60 42 8 320 301 323 334 335 334 330 337 357 340 325 319 317 316 307 296 304 308 311 314 309 302 299 294 289 284 279 284 288 286 286 283 264 249 247
167 179 175 196 223 112 59 348 307 307 310 320 327 334 331 330 3 334 314 314 313 313 295 278 286 288 293 290 290 292 292 292 292 293 287 282 288 291 287 281 269 243 241
184 191 189 226 248 300 66 340 306 296 305 314 319 318 0 336 339 326 313 314 312 317 316 307 293 286 286 287 273 280 290 291 294 293 292 291 291 294 289 279 279 276 261